RH
55 53 56 56 56 57 59 62 60 60 60 60 60 61 61 65 65 65 68 68 68 65
56 55 59 61 62 64 60 53 62 61 62 62 63 63 62 63 63 65 64 66 66 66
54 56 59 61 66 66 66 62 64 65 65 66 65 66 62 61 64 62 64 62 66 66
55 57 61 64 65 66 65 63 62 64 66 71 71 69 67 63 68 66 68 68 70 70
58 56 60 66 68 69 69 64 64 65 70 74 78 78 82 75 76 80 80 78 77 80
69 66 75 77 74 75 74 72 69 70 74 72 78 81 90 81 78 88 82 90 85 86
98 94 88 90 94 93 86 87 90 89 84 81 78 73 76 77 80 77 80 77 80 77
97 97 92 93 94 92 92 92 93 94 92 84 85 92 90 89 89 87 86 84 78 78
77 79 87 87 85 85 90 90 93 95 93 91 75 63 69 83 94 93 92 93 93 90
65 66 70 70 68 74 79 80 85 92 85 83 78 60 57 59 93 93 90 90 91 94
61 59 59 60 61 66 68 69 71 78 78 71 65 62 58 62 70 71 74 75 72 72
57 56 57 56 60 60 60 61 70 65 68 78 74 63 62 67 69 66 70 74 72 66
57 58 60 64 68 60 57 67 69 73 82 78 79 65 68 75 73 79 87 91 79 66
63 70 75 72 68 68 67 66 79 87 91 93 83 77 67 76 86 95 94 93 96 89
Wind_Speed
7 4 4 5 5 5 5 5 5 4 5 5 5 5 4 4 5 5 5 7 6 5
6 6 6 6 6 5 5 6 5 5 5 5 6 6 5 5 6 6 6 6 7 6
7 7 6 6 6 8 5 6 7 6 6 5 6 6 7 7 6 7 6 6 8 8
8 8 6 7 6 6 5 6 6 7 5 5 7 7 6 7 7 8 7 7 9 10
9 9 8 7 7 6 6 6 6 6 6 6 6 7 6 7 7 6 6 7 9 9
8 9 9 8 6 6 7 6 6 6 5 5 5 5 3 5 6 3 5 4 7 7
8 9 9 9 8 6 8 8 5 5 5 6 6 5 6 6 6 6 5 7 7 9
10 10 10 9 7 7 8 5 4 2 3 7 4 3 5 5 4 5 5 5 6 8
13 13 11 10 10 9 7 6 4 3 3 5 4 8 7 5 2 4 3 3 3 4
13 13 12 11 11 10 10 9 7 4 6 7 6 5 3 2 2 3 2 5 4 4
14 13 13 12 12 11 10 9 8 8 7 10 6 5 2 4 5 4 6 8 7 7
14 14 13 12 11 9 9 8 6 5 5 9 6 6 5 7 7 6 6 8 7 7
14 13 12 10 8 7 6 6 6 6 7 9 7 7 7 9 3 5 3 8 8 13
12 10 9 8 6 6 8 6 7 8 5 6 8 6 7 11 7 4 2 4 6 4
Wind_Direction
111 102 88 83 98 75 82 84 72 63 69 41 27 11 15 53 16 18 16 27 8 334
110 112 107 100 105 87 96 125 88 61 61 48 31 15 30 54 18 17 21 22 19 1
123 120 122 111 92 99 105 89 91 71 50 41 45 22 39 47 20 33 20 27 23 17
128 124 115 108 106 105 105 102 96 86 68 42 58 34 38 67 34 45 28 24 30 23
136 134 124 113 108 113 109 90 97 96 100 83 65 63 27 69 53 29 46 29 35 31
140 125 115 115 104 87 93 84 77 94 86 79 96 100 81 43 99 64 30 43 44 27
106 110 109 92 86 77 81 85 63 50 69 64 41 65 55 56 39 53 42 33 58 34
119 111 109 112 112 110 102 111 110 108 85 106 80 47 54 61 47 50 40 49 37 48
142 141 136 140 144 131 127 133 128 120 119 117 100 91 79 81 73 59 41 27 69 64
156 156 154 159 149 153 151 160 149 188 162 127 116 112 96 15 328 126 104 31 15 91
162 159 159 166 158 162 168 155 166 190 194 116 100 102 61 321 274 144 92 76 31 24
168 162 164 167 161 166 160 171 139 137 108 116 108 73 33 350 299 119 90 85 63 46
168 164 164 158 161 153 145 119 115 100 83 117 107 73 41 10 328 92 88 131 101 59
164 152 145 148 141 136 121 124 115 108 109 84 106 79 53 33 63 27 21 71 87 52